owner,sensor,date,latitude,longitude,air_pressure(mBar),qcFlag 
TABS,ioos:station:wmo:42045:1,2010-05-01T00:00:00Z,26.2168,-96.4998,997.09,11111222 
TABS,ioos:station:wmo:42045:1,2010-05-01T00:30:00Z,26.2168,-96.4998,997.3,11111222 
TABS,ioos:station:wmo:42045:1,2010-05-01T01:00:00Z,26.2168,-96.4998,997.54,11111222 
TABS,ioos:station:wmo:42045:1,2010-05-01T01:30:00Z,26.2168,-96.4998,997.88,11111222 
TABS,ioos:station:wmo:42045:1,2010-05-01T02:00:00Z,26.2168,-96.4998,998.02,11111222 
TABS,ioos:station:wmo:42045:1,2010-05-01T02:30:00Z,26.2168,-96.4998,998.19,11111222 
TABS,ioos:station:wmo:42045:1,2010-05-01T03:00:00Z,26.2168,-96.4998,998.48,11111222 
TABS,ioos:station:wmo:42045:1,2010-05-01T03:30:00Z,26.2168,-96.4998,998.74,11111222 
TABS,ioos:station:wmo:42045:1,2010-05-01T04:00:00Z,26.2168,-96.4998,998.71,11111222 
TABS,ioos:station:wmo:42045:1,2010-05-01T04:30:00Z,26.2168,-96.4998,998.7,11111222 
TABS,ioos:station:wmo:42045:1,2010-05-01T05:00:00Z,26.2168,-96.4998,998.74,11111222 
TABS,ioos:station:wmo:42045:1,2010-05-01T05:30:00Z,26.2168,-96.4998,998.63,11111222 
TABS,ioos:station:wmo:42045:1,2010-05-01T06:00:00Z,26.2168,-96.4998,998.58,11111222 
TABS,ioos:station:wmo:42045:1,2010-05-01T06:30:00Z,26.2168,-96.4998,998.46,11111222 
TABS,ioos:station:wmo:42045:1,2010-05-01T07:00:00Z,26.2168,-96.4998,998.32,11111222 
TABS,ioos:station:wmo:42045:1,2010-05-01T07:30:00Z,26.2168,-96.4998,997.97,11111222 
TABS,ioos:station:wmo:42045:1,2010-05-01T08:00:00Z,26.2168,-96.4998,997.75,11111222 
TABS,ioos:station:wmo:42045:1,2010-05-01T08:30:00Z,26.2168,-96.4998,997.77,11111222 
TABS,ioos:station:wmo:42045:1,2010-05-01T09:00:00Z,26.2168,-96.4998,997.67,11111222 
TABS,ioos:station:wmo:42045:1,2010-05-01T09:30:00Z,26.2168,-96.4998,997.54,11111222 
TABS,ioos:station:wmo:42045:1,2010-05-01T10:00:00Z,26.2168,-96.4998,997.61,11111222 
TABS,ioos:station:wmo:42045:1,2010-05-01T10:30:00Z,26.2168,-96.4998,997.61,11111222 
TABS,ioos:station:wmo:42045:1,2010-05-01T11:00:00Z,26.2168,-96.4998,997.52,11111222 
TABS,ioos:station:wmo:42045:1,2010-05-01T11:30:00Z,26.2168,-96.4998,997.48,11111222 
TABS,ioos:station:wmo:42045:1,2010-05-01T12:00:00Z,26.2168,-96.4998,997.55,11111222 
TABS,ioos:station:wmo:42045:1,2010-05-01T12:30:00Z,26.2168,-96.4998,997.74,11111222 
TABS,ioos:station:wmo:42045:1,2010-05-01T13:00:00Z,26.2168,-96.4998,997.85,11111222 
TABS,ioos:station:wmo:42045:1,2010-05-01T13:30:00Z,26.2168,-96.4998,997.95,11111222 
TABS,ioos:station:wmo:42045:1,2010-05-01T14:00:00Z,26.2168,-96.4998,997.96,11111222 
TABS,ioos:station:wmo:42045:1,2010-05-01T14:30:00Z,26.2168,-96.4998,998.15,11111222 
TABS,ioos:station:wmo:42045:1,2010-05-01T15:00:00Z,26.2168,-96.4998,998.6,11111222 
TABS,ioos:station:wmo:42045:1,2010-05-01T15:30:00Z,26.2168,-96.4998,998.77,11111222 
TABS,ioos:station:wmo:42045:1,2010-05-01T16:00:00Z,26.2168,-96.4998,999.06,11111222 
TABS,ioos:station:wmo:42045:1,2010-05-01T16:30:00Z,26.2168,-96.4998,999.67,11111222 
TABS,ioos:station:wmo:42045:1,2010-05-01T17:00:00Z,26.2168,-96.4998,999.45,11111222 
TABS,ioos:station:wmo:42045:1,2010-05-01T17:30:00Z,26.2168,-96.4998,999.3,11111222 
TABS,ioos:station:wmo:42045:1,2010-05-01T18:00:00Z,26.2168,-96.4998,998.91,11111222 
TABS,ioos:station:wmo:42045:1,2010-05-01T18:30:00Z,26.2168,-96.4998,998.68,11111222 
TABS,ioos:station:wmo:42045:1,2010-05-01T19:00:00Z,26.2168,-96.4998,998.4,11111222 
TABS,ioos:station:wmo:42045:1,2010-05-01T19:30:00Z,26.2168,-96.4998,998.09,11111222 
TABS,ioos:station:wmo:42045:1,2010-05-01T20:00:00Z,26.2168,-96.4998,997.71,11111222 
TABS,ioos:station:wmo:42045:1,2010-05-01T20:30:00Z,26.2168,-96.4998,997.39,11111222 
TABS,ioos:station:wmo:42045:1,2010-05-01T21:00:00Z,26.2168,-96.4998,997.01,11111222 
TABS,ioos:station:wmo:42045:1,2010-05-01T21:30:00Z,26.2168,-96.4998,996.68,11111222 
TABS,ioos:station:wmo:42045:1,2010-05-01T22:00:00Z,26.2168,-96.4998,996.52,11111222 
TABS,ioos:station:wmo:42045:1,2010-05-01T22:30:00Z,26.2168,-96.4998,996.6,11111222 
TABS,ioos:station:wmo:42045:1,2010-05-01T23:00:00Z,26.2168,-96.4998,996.72,11111222 
TABS,ioos:station:wmo:42045:1,2010-05-01T23:30:00Z,26.2168,-96.4998,997.03,11111222 
TABS,ioos:station:wmo:42045:1,2010-05-02T00:00:00Z,26.2168,-96.4998,997.33,11111222 
TABS,ioos:station:wmo:42045:1,2010-05-02T00:30:00Z,26.2168,-96.4998,997.41,11111222 
TABS,ioos:station:wmo:42045:1,2010-05-02T01:00:00Z,26.2168,-96.4998,997.53,11111222 
TABS,ioos:station:wmo:42045:1,2010-05-02T01:30:00Z,26.2168,-96.4998,997.89,11111222 
TABS,ioos:station:wmo:42045:1,2010-05-02T02:00:00Z,26.2168,-96.4998,998.65,11111222 
TABS,ioos:station:wmo:42045:1,2010-05-02T02:30:00Z,26.2168,-96.4998,998.88,11111222 
TABS,ioos:station:wmo:42045:1,2010-05-02T03:00:00Z,26.2168,-96.4998,998.92,11111222 
TABS,ioos:station:wmo:42045:1,2010-05-02T03:30:00Z,26.2168,-96.4998,999.52,11111222 
TABS,ioos:station:wmo:42045:1,2010-05-02T04:00:00Z,26.2168,-96.4998,999.97,11111222 
TABS,ioos:station:wmo:42045:1,2010-05-02T04:30:00Z,26.2168,-96.4998,1000.38,11111222 
TABS,ioos:station:wmo:42045:1,2010-05-02T05:00:00Z,26.2168,-96.4998,1000.76,11111222 
TABS,ioos:station:wmo:42045:1,2010-05-02T05:30:00Z,26.2168,-96.4998,1001.32,11111222 
TABS,ioos:station:wmo:42045:1,2010-05-02T06:00:00Z,26.2168,-96.4998,1001.64,11111222 
TABS,ioos:station:wmo:42045:1,2010-05-02T06:30:00Z,26.2168,-96.4998,1001.54,11111222 
TABS,ioos:station:wmo:42045:1,2010-05-02T07:00:00Z,26.2168,-96.4998,1001.92,11111222 
TABS,ioos:station:wmo:42045:1,2010-05-02T07:30:00Z,26.2168,-96.4998,1001.68,11111222 
TABS,ioos:station:wmo:42045:1,2010-05-02T08:00:00Z,26.2168,-96.4998,1001.8,11111222 
TABS,ioos:station:wmo:42045:1,2010-05-02T08:30:00Z,26.2168,-96.4998,1001.66,11111222 
TABS,ioos:station:wmo:42045:1,2010-05-02T09:00:00Z,26.2168,-96.4998,1001.76,11111222 
TABS,ioos:station:wmo:42045:1,2010-05-02T09:30:00Z,26.2168,-96.4998,1001.92,11111222 
TABS,ioos:station:wmo:42045:1,2010-05-02T10:00:00Z,26.2168,-96.4998,1002.25,11111222 
TABS,ioos:station:wmo:42045:1,2010-05-02T10:30:00Z,26.2168,-96.4998,1002.67,11111222 
TABS,ioos:station:wmo:42045:1,2010-05-02T11:00:00Z,26.2168,-96.4998,1002.6,11111222 
TABS,ioos:station:wmo:42045:1,2010-05-02T11:30:00Z,26.2168,-96.4998,1003.16,11111222 
TABS,ioos:station:wmo:42045:1,2010-05-02T12:00:00Z,26.2168,-96.4998,1003.97,11111222 
TABS,ioos:station:wmo:42045:1,2010-05-02T12:30:00Z,26.2168,-96.4998,1004.48,11111222 
TABS,ioos:station:wmo:42045:1,2010-05-02T13:00:00Z,26.2168,-96.4998,1005.2,11111222 
TABS,ioos:station:wmo:42045:1,2010-05-02T13:30:00Z,26.2168,-96.4998,1005.63,11111222 
TABS,ioos:station:wmo:42045:1,2010-05-02T14:00:00Z,26.2168,-96.4998,1006.72,11111222 
TABS,ioos:station:wmo:42045:1,2010-05-02T14:30:00Z,26.2168,-96.4998,1007.16,11111222 
TABS,ioos:station:wmo:42045:1,2010-05-02T15:00:00Z,26.2168,-96.4998,1007.9,11111222 
TABS,ioos:station:wmo:42045:1,2010-05-02T15:30:00Z,26.2168,-96.4998,1008.54,11111222 
TABS,ioos:station:wmo:42045:1,2010-05-02T16:00:00Z,26.2168,-96.4998,1009.01,11111222 
TABS,ioos:station:wmo:42045:1,2010-05-02T16:30:00Z,26.2168,-96.4998,1009.22,11111222 
TABS,ioos:station:wmo:42045:1,2010-05-02T17:00:00Z,26.2168,-96.4998,1009.26,11111222 
TABS,ioos:station:wmo:42045:1,2010-05-02T17:30:00Z,26.2168,-96.4998,1009.17,11111222 
TABS,ioos:station:wmo:42045:1,2010-05-02T18:00:00Z,26.2168,-96.4998,1008.96,11111222 
TABS,ioos:station:wmo:42045:1,2010-05-02T18:30:00Z,26.2168,-96.4998,1008.85,11111222 
TABS,ioos:station:wmo:42045:1,2010-05-02T19:00:00Z,26.2168,-96.4998,1008.61,11111222 
TABS,ioos:station:wmo:42045:1,2010-05-02T19:30:00Z,26.2168,-96.4998,1008.42,11111222 
TABS,ioos:station:wmo:42045:1,2010-05-02T20:00:00Z,26.2168,-96.4998,1008.1,11111222 
TABS,ioos:station:wmo:42045:1,2010-05-02T20:30:00Z,26.2168,-96.4998,1007.86,11111222 
TABS,ioos:station:wmo:42045:1,2010-05-02T21:00:00Z,26.2168,-96.4998,1007.33,11111222 
TABS,ioos:station:wmo:42045:1,2010-05-02T21:30:00Z,26.2168,-96.4998,1006.94,11111222 
TABS,ioos:station:wmo:42045:1,2010-05-02T22:00:00Z,26.2168,-96.4998,1007.07,11111222 
TABS,ioos:station:wmo:42045:1,2010-05-02T22:30:00Z,26.2168,-96.4998,1007.07,11111222 
TABS,ioos:station:wmo:42045:1,2010-05-02T23:00:00Z,26.2168,-96.4998,1007.08,11111222 
TABS,ioos:station:wmo:42045:1,2010-05-02T23:30:00Z,26.2168,-96.4998,1007.31,11111222 
TABS,ioos:station:wmo:42045:1,2010-05-03T00:00:00Z,26.2168,-96.4998,1007.72,11111222 
TABS,ioos:station:wmo:42045:1,2010-05-03T00:30:00Z,26.2168,-96.4998,1007.92,11111222 
TABS,ioos:station:wmo:42045:1,2010-05-03T01:00:00Z,26.2168,-96.4998,1008.26,11111222 
TABS,ioos:station:wmo:42045:1,2010-05-03T01:30:00Z,26.2168,-96.4998,1008.55,11111222 
TABS,ioos:station:wmo:42045:1,2010-05-03T02:00:00Z,26.2168,-96.4998,1008.89,11111222 
TABS,ioos:station:wmo:42045:1,2010-05-03T02:30:00Z,26.2168,-96.4998,1009.27,11111222 
TABS,ioos:station:wmo:42045:1,2010-05-03T03:00:00Z,26.2168,-96.4998,1009.76,11111222 
TABS,ioos:station:wmo:42045:1,2010-05-03T03:30:00Z,26.2168,-96.4998,1010.07,11111222 
TABS,ioos:station:wmo:42045:1,2010-05-03T04:00:00Z,26.2168,-96.4998,1010.28,11111222 
TABS,ioos:station:wmo:42045:1,2010-05-03T04:30:00Z,26.2168,-96.4998,1010.18,11111222 
TABS,ioos:station:wmo:42045:1,2010-05-03T05:00:00Z,26.2168,-96.4998,1010.34,11111222 
TABS,ioos:station:wmo:42045:1,2010-05-03T05:30:00Z,26.2168,-96.4998,1010.33,11111222 
TABS,ioos:station:wmo:42045:1,2010-05-03T06:00:00Z,26.2168,-96.4998,1010.59,11111222 
TABS,ioos:station:wmo:42045:1,2010-05-03T06:30:00Z,26.2168,-96.4998,1010.36,11111222 
TABS,ioos:station:wmo:42045:1,2010-05-03T07:00:00Z,26.2168,-96.4998,1010.23,11111222 
TABS,ioos:station:wmo:42045:1,2010-05-03T07:30:00Z,26.2168,-96.4998,1010.01,11111222 
TABS,ioos:station:wmo:42045:1,2010-05-03T08:00:00Z,26.2168,-96.4998,1009.9,11111222 
TABS,ioos:station:wmo:42045:1,2010-05-03T08:30:00Z,26.2168,-96.4998,1009.95,11111222 
TABS,ioos:station:wmo:42045:1,2010-05-03T09:00:00Z,26.2168,-96.4998,1009.78,11111222 
TABS,ioos:station:wmo:42045:1,2010-05-03T09:30:00Z,26.2168,-96.4998,1010.12,11111222 
TABS,ioos:station:wmo:42045:1,2010-05-03T10:00:00Z,26.2168,-96.4998,1010.07,11111222 
TABS,ioos:station:wmo:42045:1,2010-05-03T10:30:00Z,26.2168,-96.4998,1010.18,11111222 
TABS,ioos:station:wmo:42045:1,2010-05-03T11:00:00Z,26.2168,-96.4998,1010.36,11111222 
TABS,ioos:station:wmo:42045:1,2010-05-03T11:30:00Z,26.2168,-96.4998,1010.36,11111222 
TABS,ioos:station:wmo:42045:1,2010-05-03T12:00:00Z,26.2168,-96.4998,1010.54,11111222 
TABS,ioos:station:wmo:42045:1,2010-05-03T12:30:00Z,26.2168,-96.4998,1010.94,11111222 
TABS,ioos:station:wmo:42045:1,2010-05-03T13:00:00Z,26.2168,-96.4998,1011.21,11111222 
TABS,ioos:station:wmo:42045:1,2010-05-03T13:30:00Z,26.2168,-96.4998,1011.38,11111222 
TABS,ioos:station:wmo:42045:1,2010-05-03T14:00:00Z,26.2168,-96.4998,1011.32,11111222 
TABS,ioos:station:wmo:42045:1,2010-05-03T14:30:00Z,26.2168,-96.4998,1011.6,11111222 
TABS,ioos:station:wmo:42045:1,2010-05-03T15:00:00Z,26.2168,-96.4998,1011.72,11111222 
TABS,ioos:station:wmo:42045:1,2010-05-03T15:30:00Z,26.2168,-96.4998,1012.13,11111222 
TABS,ioos:station:wmo:42045:1,2010-05-03T16:00:00Z,26.2168,-96.4998,1012.32,11111222 
TABS,ioos:station:wmo:42045:1,2010-05-03T16:30:00Z,26.2168,-96.4998,1012.25,11111222 
TABS,ioos:station:wmo:42045:1,2010-05-03T17:00:00Z,26.2168,-96.4998,1012.32,11111222 
TABS,ioos:station:wmo:42045:1,2010-05-03T17:30:00Z,26.2168,-96.4998,1012.41,11111222 
TABS,ioos:station:wmo:42045:1,2010-05-03T18:00:00Z,26.2168,-96.4998,1012.65,11111222 
TABS,ioos:station:wmo:42045:1,2010-05-03T18:30:00Z,26.2168,-96.4998,1012.95,11111222 
TABS,ioos:station:wmo:42045:1,2010-05-03T19:00:00Z,26.2168,-96.4998,1013.18,11111222 
TABS,ioos:station:wmo:42045:1,2010-05-03T19:30:00Z,26.2168,-96.4998,1013.21,11111222 
TABS,ioos:station:wmo:42045:1,2010-05-03T20:00:00Z,26.2168,-96.4998,1013.16,11111222 
TABS,ioos:station:wmo:42045:1,2010-05-03T20:30:00Z,26.2168,-96.4998,1013.02,11111222 
TABS,ioos:station:wmo:42045:1,2010-05-03T21:00:00Z,26.2168,-96.4998,1012.71,11111222 
TABS,ioos:station:wmo:42045:1,2010-05-03T21:30:00Z,26.2168,-96.4998,1012.41,11111222 
TABS,ioos:station:wmo:42045:1,2010-05-03T22:00:00Z,26.2168,-96.4998,1012.41,11111222 
TABS,ioos:station:wmo:42045:1,2010-05-03T22:30:00Z,26.2168,-96.4998,1012.68,11111222 
TABS,ioos:station:wmo:42045:1,2010-05-03T23:00:00Z,26.2168,-96.4998,1012.82,11111222 
TABS,ioos:station:wmo:42045:1,2010-05-03T23:30:00Z,26.2168,-96.4998,1012.78,11111222 
TABS,ioos:station:wmo:42045:1,2010-05-04T00:00:00Z,26.2168,-96.4998,1013.09,11111222 
TABS,ioos:station:wmo:42045:1,2010-05-04T00:30:00Z,26.2168,-96.4998,1013.58,11111222 
TABS,ioos:station:wmo:42045:1,2010-05-04T01:00:00Z,26.2168,-96.4998,1013.69,11111222 
TABS,ioos:station:wmo:42045:1,2010-05-04T01:30:00Z,26.2168,-96.4998,1014.06,11111222 
TABS,ioos:station:wmo:42045:1,2010-05-04T02:00:00Z,26.2168,-96.4998,1014.38,11111222 
TABS,ioos:station:wmo:42045:1,2010-05-04T02:30:00Z,26.2168,-96.4998,1014.76,11111222 
TABS,ioos:station:wmo:42045:1,2010-05-04T03:00:00Z,26.2168,-96.4998,1014.79,11111222 
TABS,ioos:station:wmo:42045:1,2010-05-04T03:30:00Z,26.2168,-96.4998,1014.97,11111222 
TABS,ioos:station:wmo:42045:1,2010-05-04T04:00:00Z,26.2168,-96.4998,1015.05,11111222 
TABS,ioos:station:wmo:42045:1,2010-05-04T04:30:00Z,26.2168,-96.4998,1015.06,11111222 
TABS,ioos:station:wmo:42045:1,2010-05-04T05:00:00Z,26.2168,-96.4998,1015.13,11111222 
TABS,ioos:station:wmo:42045:1,2010-05-04T05:30:00Z,26.2168,-96.4998,1015.07,11111222 
TABS,ioos:station:wmo:42045:1,2010-05-04T06:00:00Z,26.2168,-96.4998,1015.04,11111222 
TABS,ioos:station:wmo:42045:1,2010-05-04T06:30:00Z,26.2168,-96.4998,1015.21,11111222 
TABS,ioos:station:wmo:42045:1,2010-05-04T07:00:00Z,26.2168,-96.4998,1015.02,11111222 
TABS,ioos:station:wmo:42045:1,2010-05-04T07:30:00Z,26.2168,-96.4998,1014.92,11111222 
TABS,ioos:station:wmo:42045:1,2010-05-04T08:00:00Z,26.2168,-96.4998,1014.87,11111222 
TABS,ioos:station:wmo:42045:1,2010-05-04T08:30:00Z,26.2168,-96.4998,1014.95,11111222 
TABS,ioos:station:wmo:42045:1,2010-05-04T09:00:00Z,26.2168,-96.4998,1014.84,11111222 
TABS,ioos:station:wmo:42045:1,2010-05-04T09:30:00Z,26.2168,-96.4998,1015.04,11111222 
TABS,ioos:station:wmo:42045:1,2010-05-04T10:00:00Z,26.2168,-96.4998,1015.04,11111222 
TABS,ioos:station:wmo:42045:1,2010-05-04T10:30:00Z,26.2168,-96.4998,1015.32,11111222 
TABS,ioos:station:wmo:42045:1,2010-05-04T11:00:00Z,26.2168,-96.4998,1015.72,11111222 
TABS,ioos:station:wmo:42045:1,2010-05-04T11:30:00Z,26.2168,-96.4998,1015.86,11111222 
TABS,ioos:station:wmo:42045:1,2010-05-04T12:00:00Z,26.2168,-96.4998,1016.21,11111222 
TABS,ioos:station:wmo:42045:1,2010-05-04T12:30:00Z,26.2168,-96.4998,1016.69,11111222 
TABS,ioos:station:wmo:42045:1,2010-05-04T13:00:00Z,26.2168,-96.4998,1016.91,11111222 
TABS,ioos:station:wmo:42045:1,2010-05-04T13:30:00Z,26.2168,-96.4998,1017.21,11111222 
TABS,ioos:station:wmo:42045:1,2010-05-04T14:00:00Z,26.2168,-96.4998,1017.33,11111222 
TABS,ioos:station:wmo:42045:1,2010-05-04T14:30:00Z,26.2168,-96.4998,1017.32,11111222 
TABS,ioos:station:wmo:42045:1,2010-05-04T15:00:00Z,26.2168,-96.4998,1017.41,11111222 
TABS,ioos:station:wmo:42045:1,2010-05-04T15:30:00Z,26.2168,-96.4998,1017.53,11111222 
TABS,ioos:station:wmo:42045:1,2010-05-04T16:00:00Z,26.2168,-96.4998,1017.5,11111222 
TABS,ioos:station:wmo:42045:1,2010-05-04T16:30:00Z,26.2168,-96.4998,1017.58,11111222 
TABS,ioos:station:wmo:42045:1,2010-05-04T17:00:00Z,26.2168,-96.4998,1017.28,11111222 
TABS,ioos:station:wmo:42045:1,2010-05-04T17:30:00Z,26.2168,-96.4998,1017.11,11111222 
TABS,ioos:station:wmo:42045:1,2010-05-04T18:00:00Z,26.2168,-96.4998,1016.72,11111222 
TABS,ioos:station:wmo:42045:1,2010-05-04T18:30:00Z,26.2168,-96.4998,1016.55,11111222 
TABS,ioos:station:wmo:42045:1,2010-05-04T19:00:00Z,26.2168,-96.4998,1016.21,11111222 
TABS,ioos:station:wmo:42045:1,2010-05-04T19:30:00Z,26.2168,-96.4998,1015.92,11111222 
TABS,ioos:station:wmo:42045:1,2010-05-04T20:00:00Z,26.2168,-96.4998,1015.65,11111222 
TABS,ioos:station:wmo:42045:1,2010-05-04T20:30:00Z,26.2168,-96.4998,1015.18,11111222 
TABS,ioos:station:wmo:42045:1,2010-05-04T21:00:00Z,26.2168,-96.4998,1014.79,11111222 
TABS,ioos:station:wmo:42045:1,2010-05-04T21:30:00Z,26.2168,-96.4998,1014.36,11111222 
TABS,ioos:station:wmo:42045:1,2010-05-04T22:00:00Z,26.2168,-96.4998,1014.15,11111222 
TABS,ioos:station:wmo:42045:1,2010-05-04T22:30:00Z,26.2168,-96.4998,1014.08,11111222 
TABS,ioos:station:wmo:42045:1,2010-05-04T23:00:00Z,26.2168,-96.4998,1013.81,11111222 
TABS,ioos:station:wmo:42045:1,2010-05-04T23:30:00Z,26.2168,-96.4998,1013.75,11111222 
TABS,ioos:station:wmo:42045:1,2010-05-05T00:00:00Z,26.2168,-96.4998,1013.52,11111222 
TABS,ioos:station:wmo:42045:1,2010-05-05T00:30:00Z,26.2168,-96.4998,1013.47,11111222 
TABS,ioos:station:wmo:42045:1,2010-05-05T01:00:00Z,26.2168,-96.4998,1013.63,11111222 
TABS,ioos:station:wmo:42045:1,2010-05-05T01:30:00Z,26.2168,-96.4998,1013.89,11111222 
TABS,ioos:station:wmo:42045:1,2010-05-05T02:00:00Z,26.2168,-96.4998,1014.13,11111222 
TABS,ioos:station:wmo:42045:1,2010-05-05T02:30:00Z,26.2168,-96.4998,1014.3,11111222 
TABS,ioos:station:wmo:42045:1,2010-05-05T03:00:00Z,26.2168,-96.4998,1014.38,11111222 
TABS,ioos:station:wmo:42045:1,2010-05-05T03:30:00Z,26.2168,-96.4998,1014.24,11111222 
TABS,ioos:station:wmo:42045:1,2010-05-05T04:00:00Z,26.2168,-96.4998,1014.14,11111222 
TABS,ioos:station:wmo:42045:1,2010-05-05T04:30:00Z,26.2168,-96.4998,1013.92,11111222 
TABS,ioos:station:wmo:42045:1,2010-05-05T05:00:00Z,26.2168,-96.4998,1013.6,11111222 
TABS,ioos:station:wmo:42045:1,2010-05-05T05:30:00Z,26.2168,-96.4998,1013.37,11111222 
TABS,ioos:station:wmo:42045:1,2010-05-05T06:00:00Z,26.2168,-96.4998,1012.97,11111222 
TABS,ioos:station:wmo:42045:1,2010-05-05T06:30:00Z,26.2168,-96.4998,1012.69,11111222 
TABS,ioos:station:wmo:42045:1,2010-05-05T07:00:00Z,26.2168,-96.4998,1012.25,11111222 
TABS,ioos:station:wmo:42045:1,2010-05-05T07:30:00Z,26.2168,-96.4998,1012.19,11111222 
TABS,ioos:station:wmo:42045:1,2010-05-05T08:00:00Z,26.2168,-96.4998,1011.92,11111222 
TABS,ioos:station:wmo:42045:1,2010-05-05T08:30:00Z,26.2168,-96.4998,1011.86,11111222 
TABS,ioos:station:wmo:42045:1,2010-05-05T09:00:00Z,26.2168,-96.4998,1011.71,11111222 
TABS,ioos:station:wmo:42045:1,2010-05-05T09:30:00Z,26.2168,-96.4998,1011.53,11111222 
TABS,ioos:station:wmo:42045:1,2010-05-05T10:00:00Z,26.2168,-96.4998,1011.63,11111222 
TABS,ioos:station:wmo:42045:1,2010-05-05T10:30:00Z,26.2168,-96.4998,1011.78,11111222 
TABS,ioos:station:wmo:42045:1,2010-05-05T11:00:00Z,26.2168,-96.4998,1011.94,11111222 
TABS,ioos:station:wmo:42045:1,2010-05-05T11:30:00Z,26.2168,-96.4998,1012.0,11111222 
TABS,ioos:station:wmo:42045:1,2010-05-05T12:00:00Z,26.2168,-96.4998,1012.25,11111222 
TABS,ioos:station:wmo:42045:1,2010-05-05T12:30:00Z,26.2168,-96.4998,1012.65,11111222 
TABS,ioos:station:wmo:42045:1,2010-05-05T13:00:00Z,26.2168,-96.4998,1013.06,11111222 
TABS,ioos:station:wmo:42045:1,2010-05-05T13:30:00Z,26.2168,-96.4998,1013.27,11111222 
TABS,ioos:station:wmo:42045:1,2010-05-05T14:00:00Z,26.2168,-96.4998,1013.52,11111222 
TABS,ioos:station:wmo:42045:1,2010-05-05T14:30:00Z,26.2168,-96.4998,1013.68,11111222 
TABS,ioos:station:wmo:42045:1,2010-05-05T15:00:00Z,26.2168,-96.4998,1013.86,11111222 
TABS,ioos:station:wmo:42045:1,2010-05-05T15:30:00Z,26.2168,-96.4998,1013.94,11111222 
TABS,ioos:station:wmo:42045:1,2010-05-05T16:00:00Z,26.2168,-96.4998,1013.9,11111222 
TABS,ioos:station:wmo:42045:1,2010-05-05T16:30:00Z,26.2168,-96.4998,1013.95,11111222 
TABS,ioos:station:wmo:42045:1,2010-05-05T17:00:00Z,26.2168,-96.4998,1014.07,11111222 
TABS,ioos:station:wmo:42045:1,2010-05-05T17:30:00Z,26.2168,-96.4998,1013.9,11111222 
TABS,ioos:station:wmo:42045:1,2010-05-05T18:00:00Z,26.2168,-96.4998,1013.77,11111222 
TABS,ioos:station:wmo:42045:1,2010-05-05T18:30:00Z,26.2168,-96.4998,1013.52,11111222 
TABS,ioos:station:wmo:42045:1,2010-05-05T19:00:00Z,26.2168,-96.4998,1013.49,11111222 
TABS,ioos:station:wmo:42045:1,2010-05-05T19:30:00Z,26.2168,-96.4998,1013.17,11111222 
TABS,ioos:station:wmo:42045:1,2010-05-05T20:00:00Z,26.2168,-96.4998,1012.96,11111222 
TABS,ioos:station:wmo:42045:1,2010-05-05T20:30:00Z,26.2168,-96.4998,1012.66,11111222 
TABS,ioos:station:wmo:42045:1,2010-05-05T21:00:00Z,26.2168,-96.4998,1012.5,11111222 
TABS,ioos:station:wmo:42045:1,2010-05-05T21:30:00Z,26.2168,-96.4998,1012.29,11111222 
TABS,ioos:station:wmo:42045:1,2010-05-05T22:00:00Z,26.2168,-96.4998,1012.22,11111222 
TABS,ioos:station:wmo:42045:1,2010-05-05T22:30:00Z,26.2168,-96.4998,1011.95,11111222 
TABS,ioos:station:wmo:42045:1,2010-05-05T23:00:00Z,26.2168,-96.4998,1011.78,11111222 
TABS,ioos:station:wmo:42045:1,2010-05-05T23:30:00Z,26.2168,-96.4998,1011.6,11111222 
TABS,ioos:station:wmo:42045:1,2010-05-06T00:00:00Z,26.2168,-96.4998,1011.48,11111222 
TABS,ioos:station:wmo:42045:1,2010-05-06T00:30:00Z,26.2168,-96.4998,1011.7,11111222 
TABS,ioos:station:wmo:42045:1,2010-05-06T01:00:00Z,26.2168,-96.4998,1011.84,11111222 
TABS,ioos:station:wmo:42045:1,2010-05-06T01:30:00Z,26.2168,-96.4998,1012.23,11111222 
TABS,ioos:station:wmo:42045:1,2010-05-06T02:00:00Z,26.2168,-96.4998,1012.51,11111222 
TABS,ioos:station:wmo:42045:1,2010-05-06T02:30:00Z,26.2168,-96.4998,1012.71,11111222 
TABS,ioos:station:wmo:42045:1,2010-05-06T03:00:00Z,26.2168,-96.4998,1012.94,11111222 
TABS,ioos:station:wmo:42045:1,2010-05-06T03:30:00Z,26.2168,-96.4998,1013.17,11111222 
TABS,ioos:station:wmo:42045:1,2010-05-06T04:00:00Z,26.2168,-96.4998,1013.25,11111222 
TABS,ioos:station:wmo:42045:1,2010-05-06T04:30:00Z,26.2168,-96.4998,1013.29,11111222 
TABS,ioos:station:wmo:42045:1,2010-05-06T05:00:00Z,26.2168,-96.4998,1013.24,11111222 
TABS,ioos:station:wmo:42045:1,2010-05-06T05:30:00Z,26.2168,-96.4998,1013.21,11111222 
TABS,ioos:station:wmo:42045:1,2010-05-06T06:00:00Z,26.2168,-96.4998,1012.99,11111222 
TABS,ioos:station:wmo:42045:1,2010-05-06T06:30:00Z,26.2168,-96.4998,1012.84,11111222 
TABS,ioos:station:wmo:42045:1,2010-05-06T07:00:00Z,26.2168,-96.4998,1012.5,11111222 
TABS,ioos:station:wmo:42045:1,2010-05-06T07:30:00Z,26.2168,-96.4998,1012.13,11111222 
TABS,ioos:station:wmo:42045:1,2010-05-06T08:00:00Z,26.2168,-96.4998,1011.85,11111222 
TABS,ioos:station:wmo:42045:1,2010-05-06T08:30:00Z,26.2168,-96.4998,1011.81,11111222 
TABS,ioos:station:wmo:42045:1,2010-05-06T09:00:00Z,26.2168,-96.4998,1011.52,11111222 
TABS,ioos:station:wmo:42045:1,2010-05-06T09:30:00Z,26.2168,-96.4998,1011.52,11111222 
TABS,ioos:station:wmo:42045:1,2010-05-06T10:00:00Z,26.2168,-96.4998,1011.37,11111222 
TABS,ioos:station:wmo:42045:1,2010-05-06T10:30:00Z,26.2168,-96.4998,1011.51,11111222 
TABS,ioos:station:wmo:42045:1,2010-05-06T11:00:00Z,26.2168,-96.4998,1011.54,11111222 
TABS,ioos:station:wmo:42045:1,2010-05-06T11:30:00Z,26.2168,-96.4998,1011.75,11111222 
TABS,ioos:station:wmo:42045:1,2010-05-06T12:00:00Z,26.2168,-96.4998,1011.99,11111222 
TABS,ioos:station:wmo:42045:1,2010-05-06T12:30:00Z,26.2168,-96.4998,1012.22,11111222 
TABS,ioos:station:wmo:42045:1,2010-05-06T13:00:00Z,26.2168,-96.4998,1012.31,11111222 
TABS,ioos:station:wmo:42045:1,2010-05-06T13:30:00Z,26.2168,-96.4998,1012.38,11111222 
TABS,ioos:station:wmo:42045:1,2010-05-06T14:00:00Z,26.2168,-96.4998,1012.47,11111222 
TABS,ioos:station:wmo:42045:1,2010-05-06T14:30:00Z,26.2168,-96.4998,1012.53,11111222 
TABS,ioos:station:wmo:42045:1,2010-05-06T15:00:00Z,26.2168,-96.4998,1012.74,11111222 
TABS,ioos:station:wmo:42045:1,2010-05-06T15:30:00Z,26.2168,-96.4998,1012.96,11111222 
TABS,ioos:station:wmo:42045:1,2010-05-06T16:00:00Z,26.2168,-96.4998,1013.15,11111222 
TABS,ioos:station:wmo:42045:1,2010-05-06T16:30:00Z,26.2168,-96.4998,1013.22,11111222 
TABS,ioos:station:wmo:42045:1,2010-05-06T17:00:00Z,26.2168,-96.4998,1013.21,11111222 
TABS,ioos:station:wmo:42045:1,2010-05-06T17:30:00Z,26.2168,-96.4998,1013.19,11111222 
TABS,ioos:station:wmo:42045:1,2010-05-06T18:00:00Z,26.2168,-96.4998,1013.0,11111222 
TABS,ioos:station:wmo:42045:1,2010-05-06T18:30:00Z,26.2168,-96.4998,1012.89,11111222 
TABS,ioos:station:wmo:42045:1,2010-05-06T19:00:00Z,26.2168,-96.4998,1012.58,11111222 